| time (UTC) | temp F | wind direction | speed MPH | gust MPH | rain 1hr in | rain 24hr in | rain mn in | humidity % | barometer mb |
| 20260508012826 | 62 | 142 | 0.0 | 0.0 | 0.00 | 0.00 | 0.00 | 86 | 1015.3 |
| 20260508012323 | 62 | 142 | 0.0 | 0.0 | 0.00 | 0.00 | 0.00 | 85 | 1015.0 |
| 20260508011820 | 62 | 142 | 0.0 | 0.0 | 0.00 | 0.00 | 0.00 | 85 | 1015.1 |
| 20260508011318 | 62 | 142 | 0.0 | 0.0 | 0.00 | 0.00 | 0.00 | 84 | 1015.4 |
| 20260508010815 | 63 | 142 | 0.0 | 0.0 | 0.00 | 0.00 | 0.00 | 85 | 1015.3 |
| 20260508010313 | 63 | 142 | 0.0 | 0.0 | 0.00 | 0.00 | 0.00 | 84 | 1015.2 |
| 20260508005809 | 63 | 142 | 0.0 | 0.0 | 0.00 | 0.00 | 0.00 | 83 | 1015.5 |
| 20260508005306 | 64 | 142 | 0.0 | 0.0 | 0.00 | 0.00 | 0.00 | 82 | 1015.5 |
| 20260508004802 | 64 | 142 | 0.0 | 0.0 | 0.00 | 0.00 | 0.00 | 82 | 1015.5 |
| 20260508004258 | 64 | 143 | 0.0 | 0.0 | 0.00 | 0.00 | 0.00 | 80 | 1015.6 |
| 20260508003754 | 64 | 143 | 1.0 | 2.0 | 0.00 | 0.00 | 0.00 | 80 | 1015.7 |
| 20260508003252 | 64 | 142 | 2.0 | 3.0 | 0.00 | 0.00 | 0.00 | 79 | 1015.6 |
| 20260508002748 | 65 | 138 | 0.0 | 0.0 | 0.00 | 0.00 | 0.00 | 79 | 1015.9 |
| 20260508002246 | 65 | 137 | 0.0 | 0.0 | 0.00 | 0.00 | 0.00 | 76 | 1016.2 |
| 20260508001742 | 65 | 153 | 0.0 | 0.0 | 0.00 | 0.00 | 0.00 | 77 | 1016.4 |
| 20260508001237 | 65 | 137 | 0.0 | 0.0 | 0.00 | 0.00 | 0.00 | 77 | 1016.0 |
| 20260508000734 | 65 | 127 | 0.0 | 0.0 | 0.00 | 0.00 | 0.00 | 76 | 1016.0 |
| 20260508000231 | 65 | 138 | 0.0 | 0.0 | 0.00 | 0.00 | 0.00 | 77 | 1016.1 |
| 20260507235727 | 65 | 138 | 2.0 | 2.0 | 0.00 | 0.00 | 0.00 | 76 | 1016.2 |
| 20260507235225 | 65 | 136 | 0.0 | 0.0 | 0.00 | 0.00 | 0.00 | 76 | 1016.0 |
| 20260507234722 | 65 | 138 | 0.0 | 0.0 | 0.00 | 0.00 | 0.00 | 75 | 1015.9 |
| 20260507234219 | 65 | 122 | 0.0 | 2.0 | 0.00 | 0.00 | 0.00 | 74 | 1016.1 |
| 20260507233715 | 65 | 108 | 2.0 | 3.0 | 0.00 | 0.00 | 0.00 | 74 | 1016.3 |
| 20260507233213 | 65 | 142 | 0.0 | 0.0 | 0.00 | 0.00 | 0.00 | 74 | 1016.2 |
| 20260507232710 | 65 | 143 | 1.0 | 2.0 | 0.00 | 0.00 | 0.00 | 74 | 1016.0 |
| 20260507232207 | 65 | 133 | 0.0 | 0.0 | 0.00 | 0.00 | 0.00 | 75 | 1016.1 |
| 20260507231704 | 65 | 133 | 0.0 | 2.0 | 0.00 | 0.00 | 0.00 | 74 | 1016.0 |
| 20260507231200 | 65 | 125 | 2.0 | 3.0 | 0.00 | 0.00 | 0.00 | 73 | 1016.1 |
| 20260507230657 | 65 | 121 | 1.0 | 2.0 | 0.00 | 0.00 | 0.00 | 75 | 1015.9 |
| 20260507230155 | 65 | 134 | 1.0 | 2.0 | 0.00 | 0.00 | 0.00 | 72 | 1016.3 |
| 20260507225654 | 66 | 122 | 0.0 | 0.0 | 0.00 | 0.00 | 0.00 | 73 | 1016.4 |
| 20260507225151 | 66 | 143 | 1.0 | 2.0 | 0.00 | 0.00 | 0.00 | 74 | 1016.2 |
| 20260507224646 | 66 | 156 | 0.0 | 0.0 | 0.00 | 0.00 | 0.00 | 74 | 1016.4 |
| 20260507224143 | 65 | 180 | 2.0 | 3.0 | 0.00 | 0.00 | 0.00 | 74 | 1016.5 |
| 20260507223639 | 66 | 33 | 5.0 | 5.0 | 0.00 | 0.00 | 0.00 | 72 | 1016.2 |
| 20260507223136 | 65 | 153 | 1.0 | 2.0 | 0.00 | 0.00 | 0.00 | 74 | 1015.9 |
| 20260507222633 | 65 | 134 | 2.0 | 2.0 | 0.00 | 0.00 | 0.00 | 73 | 1016.2 |
| 20260507222130 | 66 | 115 | 1.0 | 2.0 | 0.00 | 0.00 | 0.00 | 74 | 1016.3 |
| 20260507221626 | 66 | 145 | 1.0 | 2.0 | 0.00 | 0.00 | 0.00 | 73 | 1016.9 |
| 20260507221123 | 66 | 138 | 1.0 | 2.0 | 0.00 | 0.00 | 0.00 | 72 | 1016.9 |
| 20260507220620 | 66 | 83 | 3.0 | 3.0 | 0.00 | 0.00 | 0.00 | 71 | 1017.1 |
| 20260507220117 | 66 | 339 | 5.0 | 7.0 | 0.00 | 0.00 | 0.00 | 72 | 1017.0 |
| 20260507215613 | 66 | 52 | 2.0 | 3.0 | 0.00 | 0.00 | 0.00 | 72 | 1016.9 |
| 20260507215111 | 66 | 130 | 3.0 | 5.0 | 0.00 | 0.00 | 0.00 | 72 | 1016.7 |
| 20260507214608 | 66 | 74 | 3.0 | 5.0 | 0.00 | 0.00 | 0.00 | 72 | 1016.9 |
| 20260507214104 | 66 | 84 | 4.0 | 5.0 | 0.00 | 0.00 | 0.00 | 71 | 1016.7 |
| 20260507213601 | 65 | 144 | 3.0 | 3.0 | 0.00 | 0.00 | 0.00 | 72 | 1016.0 |
| 20260507213058 | 65 | 119 | 1.0 | 3.0 | 0.00 | 0.00 | 0.00 | 73 | 1016.0 |
| 20260507212554 | 65 | 138 | 0.0 | 2.0 | 0.00 | 0.00 | 0.00 | 73 | 1016.5 |
| 20260507212051 | 65 | 102 | 4.0 | 5.0 | 0.00 | 0.00 | 0.00 | 72 | 1016.6 |
| 20260507211547 | 66 | 336 | 5.0 | 7.0 | 0.00 | 0.00 | 0.00 | 73 | 1016.9 |
| 20260507211043 | 66 | 337 | 4.0 | 5.0 | 0.00 | 0.00 | 0.00 | 72 | 1017.5 |
| 20260507210541 | 66 | 152 | 7.0 | 10.0 | 0.00 | 0.00 | 0.00 | 71 | 1017.6 |
| 20260507210038 | 66 | 160 | 2.0 | 3.0 | 0.00 | 0.00 | 0.00 | 74 | 1017.2 |
| 20260507205534 | 65 | 99 | 5.0 | 7.0 | 0.00 | 0.00 | 0.00 | 72 | 1017.0 |
| 20260507205031 | 65 | 80 | 3.0 | 3.0 | 0.00 | 0.00 | 0.00 | 73 | 1017.6 |
| 20260507204527 | 65 | 123 | 3.0 | 5.0 | 0.00 | 0.00 | 0.00 | 72 | 1017.8 |
| 20260507204025 | 64 | 137 | 2.0 | 3.0 | 0.00 | 0.00 | 0.00 | 74 | 1017.3 |
| 20260507203523 | 64 | 145 | 3.0 | 5.0 | 0.00 | 0.00 | 0.00 | 75 | 1017.4 |
| 20260507203020 | 64 | 45 | 6.0 | 9.0 | 0.00 | 0.00 | 0.00 | 73 | 1017.6 |
| 20260507202515 | 64 | 324 | 6.0 | 7.0 | 0.00 | 0.00 | 0.00 | 74 | 1017.5 |
| 20260507202012 | 64 | 4 | 2.0 | 3.0 | 0.00 | 0.00 | 0.00 | 74 | 1017.2 |
| 20260507201508 | 64 | 29 | 6.0 | 7.0 | 0.00 | 0.00 | 0.00 | 73 | 1017.3 |
| 20260507201004 | 64 | 121 | 3.0 | 3.0 | 0.00 | 0.00 | 0.00 | 73 | 1017.5 |
| 20260507200459 | 64 | 84 | 4.0 | 5.0 | 0.00 | 0.00 | 0.00 | 72 | 1017.7 |
| 20260507195955 | 64 | 82 | 3.0 | 5.0 | 0.00 | 0.00 | 0.00 | 73 | 1017.3 |
| 20260507195453 | 65 | 123 | 6.0 | 9.0 | 0.00 | 0.00 | 0.00 | 72 | 1017.5 |
| 20260507194950 | 64 | 124 | 2.0 | 3.0 | 0.00 | 0.00 | 0.00 | 73 | 1017.6 |
| 20260507194447 | 64 | 137 | 1.0 | 2.0 | 0.00 | 0.00 | 0.00 | 74 | 1017.9 |
| 20260507193942 | 64 | 135 | 2.0 | 2.0 | 0.00 | 0.00 | 0.00 | 74 | 1017.8 |
| 20260507193440 | 64 | 56 | 1.0 | 2.0 | 0.00 | 0.00 | 0.00 | 74 | 1017.5 |
| 20260507192937 | 64 | 59 | 5.0 | 7.0 | 0.00 | 0.00 | 0.00 | 75 | 1017.5 |
| 20260507192432 | 64 | 64 | 2.0 | 3.0 | 0.00 | 0.00 | 0.00 | 75 | 1017.6 |
| 20260507191930 | 64 | 101 | 3.0 | 5.0 | 0.00 | 0.00 | 0.00 | 75 | 1018.0 |
| 20260507191426 | 64 | 280 | 4.0 | 7.0 | 0.00 | 0.00 | 0.00 | 73 | 1018.9 |
| 20260507190922 | 64 | 30 | 6.0 | 7.0 | 0.00 | 0.00 | 0.00 | 74 | 1018.2 |
| 20260507190420 | 64 | 117 | 0.0 | 0.0 | 0.00 | 0.00 | 0.00 | 77 | 1018.2 |
| 20260507185919 | 64 | 128 | 0.0 | 0.0 | 0.00 | 0.00 | 0.00 | 77 | 1018.2 |
| 20260507185416 | 63 | 123 | 0.0 | 0.0 | 0.00 | 0.00 | 0.00 | 77 | 1018.1 |
| 20260507184913 | 63 | 120 | 2.0 | 2.0 | 0.00 | 0.00 | 0.00 | 76 | 1018.0 |
| 20260507184410 | 63 | 133 | 0.0 | 2.0 | 0.00 | 0.00 | 0.00 | 73 | 1018.3 |
| 20260507183908 | 63 | 142 | 1.0 | 2.0 | 0.00 | 0.00 | 0.00 | 75 | 1018.7 |
| 20260507183404 | 63 | 140 | 0.0 | 2.0 | 0.00 | 0.00 | 0.00 | 76 | 1019.0 |
| 20260507182902 | 63 | 73 | 0.0 | 0.0 | 0.00 | 0.00 | 0.00 | 76 | 1018.7 |
| 20260507182357 | 63 | 120 | 2.0 | 3.0 | 0.00 | 0.00 | 0.00 | 75 | 1019.1 |
| 20260507181854 | 63 | 99 | 2.0 | 3.0 | 0.00 | 0.00 | 0.00 | 73 | 1019.0 |
| 20260507181350 | 63 | 154 | 6.0 | 9.0 | 0.00 | 0.00 | 0.00 | 73 | 1018.9 |
| 20260507180847 | 63 | 119 | 3.0 | 7.0 | 0.00 | 0.00 | 0.00 | 76 | 1017.5 |
| 20260507180344 | 63 | 126 | 2.0 | 3.0 | 0.00 | 0.00 | 0.00 | 76 | 1018.0 |
| 20260507175839 | 62 | 69 | 2.0 | 3.0 | 0.00 | 0.00 | 0.00 | 75 | 1018.5 |
| 20260507175337 | 62 | 124 | 2.0 | 3.0 | 0.00 | 0.00 | 0.00 | 76 | 1019.3 |
| 20260507174834 | 62 | 103 | 4.0 | 5.0 | 0.00 | 0.00 | 0.00 | 75 | 1018.7 |
| 20260507174331 | 62 | 101 | 3.0 | 3.0 | 0.00 | 0.00 | 0.00 | 75 | 1018.0 |
| 20260507173829 | 62 | 75 | 3.0 | 5.0 | 0.00 | 0.00 | 0.00 | 76 | 1019.0 |
| 20260507173326 | 62 | 349 | 5.0 | 7.0 | 0.00 | 0.00 | 0.00 | 76 | 1019.5 |
| 20260507172822 | 61 | 113 | 2.0 | 3.0 | 0.00 | 0.00 | 0.00 | 77 | 1019.0 |
| 20260507172319 | 61 | 126 | 2.0 | 3.0 | 0.00 | 0.00 | 0.00 | 77 | 1018.6 |
| 20260507171814 | 61 | 138 | 1.0 | 2.0 | 0.00 | 0.00 | 0.00 | 77 | 1018.2 |
| 20260507171312 | 61 | 53 | 4.0 | 5.0 | 0.00 | 0.00 | 0.00 | 76 | 1018.7 |
| 20260507170809 | 61 | 127 | 2.0 | 3.0 | 0.00 | 0.00 | 0.00 | 76 | 1019.4 |
| 20260507170305 | 61 | 195 | 2.0 | 3.0 | 0.00 | 0.00 | 0.00 | 76 | 1019.8 |
| 20260507165801 | 61 | 283 | 7.0 | 10.0 | 0.00 | 0.00 | 0.00 | 77 | 1020.1 |
| 20260507165257 | 61 | 60 | 4.0 | 5.0 | 0.00 | 0.00 | 0.00 | 76 | 1019.9 |
| 20260507164753 | 61 | 78 | 2.0 | 3.0 | 0.00 | 0.00 | 0.00 | 76 | 1019.5 |
| 20260507164251 | 61 | 204 | 4.0 | 5.0 | 0.00 | 0.00 | 0.00 | 76 | 1019.7 |
| 20260507163748 | 61 | 147 | 2.0 | 2.0 | 0.00 | 0.00 | 0.00 | 77 | 1019.1 |
| 20260507163245 | 61 | 334 | 7.0 | 9.0 | 0.00 | 0.00 | 0.00 | 76 | 1020.7 |
| 20260507162741 | 61 | 66 | 2.0 | 3.0 | 0.00 | 0.00 | 0.00 | 77 | 1019.6 |
| 20260507162237 | 61 | 105 | 2.0 | 3.0 | 0.00 | 0.00 | 0.00 | 76 | 1019.8 |
| 20260507161734 | 61 | 114 | 0.0 | 2.0 | 0.00 | 0.00 | 0.00 | 78 | 1020.1 |
| 20260507161231 | 60 | 143 | 1.0 | 2.0 | 0.00 | 0.00 | 0.00 | 77 | 1019.5 |
| 20260507160726 | 61 | 122 | 2.0 | 2.0 | 0.00 | 0.00 | 0.00 | 77 | 1019.6 |
| 20260507160223 | 60 | 129 | 0.0 | 2.0 | 0.00 | 0.00 | 0.00 | 78 | 1019.7 |
| 20260507155719 | 60 | 105 | 1.0 | 2.0 | 0.00 | 0.00 | 0.00 | 78 | 1019.2 |
| 20260507155215 | 60 | 135 | 0.0 | 2.0 | 0.00 | 0.00 | 0.00 | 78 | 1019.6 |
| 20260507154712 | 60 | 259 | 7.0 | 9.0 | 0.00 | 0.00 | 0.00 | 77 | 1019.6 |
| 20260507154210 | 60 | 74 | 5.0 | 7.0 | 0.00 | 0.00 | 0.00 | 78 | 1020.1 |
| 20260507153707 | 60 | 108 | 3.0 | 3.0 | 0.00 | 0.00 | 0.00 | 79 | 1019.8 |
| 20260507153203 | 60 | 87 | 5.0 | 7.0 | 0.00 | 0.00 | 0.00 | 78 | 1019.2 |
| 20260507152659 | 60 | 66 | 6.0 | 9.0 | 0.00 | 0.00 | 0.00 | 78 | 1019.6 |
| 20260507152155 | 59 | 58 | 3.0 | 3.0 | 0.00 | 0.00 | 0.00 | 79 | 1019.6 |
| 20260507151651 | 59 | 38 | 6.0 | 7.0 | 0.00 | 0.00 | 0.00 | 81 | 1019.3 |
| 20260507151148 | 59 | 61 | 3.0 | 5.0 | 0.00 | 0.00 | 0.00 | 81 | 1019.5 |
| 20260507150645 | 59 | 62 | 6.0 | 9.0 | 0.00 | 0.00 | 0.00 | 82 | 1018.9 |
| 20260507150142 | 58 | 50 | 4.0 | 7.0 | 0.00 | 0.00 | 0.00 | 83 | 1018.6 |
| 20260507145637 | 58 | 87 | 3.0 | 5.0 | 0.00 | 0.00 | 0.00 | 83 | 1018.7 |
| 20260507145135 | 58 | 60 | 6.0 | 10.0 | 0.00 | 0.00 | 0.00 | 82 | 1019.1 |
| 20260507144631 | 58 | 66 | 5.0 | 7.0 | 0.00 | 0.00 | 0.00 | 83 | 1019.6 |
| 20260507144130 | 58 | 84 | 4.0 | 7.0 | 0.00 | 0.00 | 0.00 | 83 | 1020.0 |
| 20260507143626 | 58 | 128 | 3.0 | 5.0 | 0.00 | 0.00 | 0.00 | 83 | 1019.5 |
| 20260507143123 | 58 | 95 | 4.0 | 7.0 | 0.00 | 0.00 | 0.00 | 83 | 1019.4 |
| 20260507142618 | 58 | 355 | 6.0 | 9.0 | 0.00 | 0.00 | 0.00 | 83 | 1019.4 |
| 20260507142116 | 58 | 183 | 4.0 | 5.0 | 0.00 | 0.00 | 0.00 | 83 | 1019.2 |
| 20260507141612 | 58 | 173 | 6.0 | 7.0 | 0.00 | 0.00 | 0.00 | 83 | 1019.1 |
| 20260507141109 | 58 | 111 | 6.0 | 10.0 | 0.00 | 0.00 | 0.00 | 83 | 1019.2 |
| 20260507140605 | 58 | 120 | 2.0 | 3.0 | 0.00 | 0.00 | 0.00 | 84 | 1018.4 |
| 20260507135559 | 58 | 42 | 9.0 | 14.0 | 0.00 | 0.00 | 0.00 | 82 | 1019.1 |
| 20260507135057 | 59 | 56 | 5.0 | 7.0 | 0.00 | 0.00 | 0.00 | 82 | 1019.7 |
| 20260507134553 | 59 | 41 | 9.0 | 14.0 | 0.00 | 0.00 | 0.00 | 82 | 1019.8 |
| 20260507134049 | 59 | 12 | 3.0 | 5.0 | 0.00 | 0.00 | 0.00 | 84 | 1019.8 |
| 20260507133545 | 58 | 78 | 7.0 | 10.0 | 0.00 | 0.00 | 0.00 | 84 | 1019.7 |
| 20260507133043 | 58 | 251 | 4.0 | 5.0 | 0.00 | 0.00 | 0.00 | 85 | 1019.6 |
| 20260507132540 | 58 | 78 | 2.0 | 3.0 | 0.00 | 0.00 | 0.00 | 84 | 1019.5 |
| 20260507132036 | 58 | 67 | 4.0 | 5.0 | 0.00 | 0.00 | 0.00 | 84 | 1019.3 |
| 20260507131533 | 58 | 74 | 5.0 | 7.0 | 0.00 | 0.00 | 0.00 | 83 | 1019.2 |
| 20260507131030 | 58 | 81 | 5.0 | 9.0 | 0.00 | 0.00 | 0.00 | 83 | 1019.3 |
| 20260507130527 | 58 | 59 | 5.0 | 5.0 | 0.00 | 0.00 | 0.00 | 83 | 1019.6 |
| 20260507130026 | 58 | 338 | 9.0 | 14.0 | 0.00 | 0.00 | 0.00 | 84 | 1019.3 |
| 20260507125524 | 58 | 48 | 5.0 | 7.0 | 0.00 | 0.00 | 0.00 | 85 | 1019.2 |
| 20260507125021 | 58 | 301 | 7.0 | 9.0 | 0.00 | 0.00 | 0.00 | 86 | 1019.1 |
| 20260507124517 | 58 | 42 | 10.0 | 12.0 | 0.00 | 0.00 | 0.00 | 86 | 1019.0 |
| 20260507124015 | 59 | 355 | 8.0 | 10.0 | 0.00 | 0.00 | 0.00 | 87 | 1018.5 |
| 20260507123513 | 59 | 316 | 5.0 | 5.0 | 0.00 | 0.00 | 0.00 | 87 | 1018.5 |
| 20260507123010 | 59 | 68 | 4.0 | 5.0 | 0.00 | 0.00 | 0.00 | 87 | 1018.5 |
| 20260507122504 | 59 | 134 | 3.0 | 5.0 | 0.00 | 0.00 | 0.00 | 87 | 1018.5 |
| 20260507122001 | 59 | 89 | 5.0 | 7.0 | 0.00 | 0.00 | 0.00 | 87 | 1018.4 |
| 20260507121456 | 59 | 63 | 4.0 | 7.0 | 0.00 | 0.00 | 0.00 | 87 | 1018.4 |
| 20260507120953 | 59 | 357 | 3.0 | 5.0 | 0.00 | 0.00 | 0.00 | 87 | 1018.2 |
| 20260507120449 | 59 | 10 | 6.0 | 7.0 | 0.00 | 0.00 | 0.00 | 87 | 1018.4 |
| 20260507115946 | 59 | 130 | 5.0 | 7.0 | 0.00 | 0.00 | 0.00 | 87 | 1018.3 |
| 20260507115442 | 59 | 137 | 6.0 | 10.0 | 0.00 | 0.00 | 0.00 | 87 | 1018.2 |
| 20260507114938 | 59 | 11 | 5.0 | 7.0 | 0.00 | 0.00 | 0.00 | 88 | 1018.4 |
| 20260507114434 | 59 | 64 | 6.0 | 9.0 | 0.00 | 0.00 | 0.00 | 88 | 1018.3 |
| 20260507113932 | 59 | 68 | 5.0 | 7.0 | 0.00 | 0.00 | 0.00 | 88 | 1018.1 |
| 20260507113428 | 59 | 79 | 6.0 | 12.0 | 0.00 | 0.00 | 0.00 | 89 | 1018.0 |
| 20260507112926 | 59 | 344 | 6.0 | 9.0 | 0.00 | 0.00 | 0.00 | 89 | 1017.9 |
| 20260507112423 | 59 | 13 | 6.0 | 7.0 | 0.00 | 0.00 | 0.00 | 90 | 1017.8 |
| 20260507111920 | 59 | 342 | 7.0 | 9.0 | 0.00 | 0.00 | 0.00 | 89 | 1018.1 |
| 20260507111418 | 59 | 325 | 8.0 | 10.0 | 0.00 | 0.00 | 0.00 | 88 | 1018.0 |
| 20260507110914 | 59 | 345 | 8.0 | 9.0 | 0.00 | 0.00 | 0.00 | 87 | 1017.8 |
| 20260507110410 | 59 | 324 | 5.0 | 10.0 | 0.00 | 0.00 | 0.00 | 86 | 1017.5 |
| 20260507105907 | 59 | 92 | 7.0 | 10.0 | 0.00 | 0.00 | 0.00 | 86 | 1017.5 |
| 20260507105403 | 59 | 352 | 4.0 | 7.0 | 0.00 | 0.00 | 0.00 | 86 | 1017.4 |
| 20260507104900 | 59 | 10 | 8.0 | 10.0 | 0.00 | 0.00 | 0.00 | 87 | 1017.6 |
| 20260507104357 | 59 | 20 | 11.0 | 12.0 | 0.00 | 0.00 | 0.00 | 88 | 1017.8 |
| 20260507103853 | 59 | 16 | 8.0 | 12.0 | 0.00 | 0.00 | 0.00 | 89 | 1017.6 |
| 20260507103350 | 59 | 3 | 7.0 | 9.0 | 0.00 | 0.00 | 0.00 | 88 | 1017.3 |
| 20260507102846 | 59 | 14 | 11.0 | 14.0 | 0.00 | 0.00 | 0.00 | 90 | 1017.8 |
| 20260507102342 | 59 | 334 | 9.0 | 14.0 | 0.00 | 0.00 | 0.00 | 91 | 1018.0 |
| 20260507101839 | 59 | 325 | 5.0 | 7.0 | 0.00 | 0.00 | 0.00 | 91 | 1017.9 |
| 20260507101333 | 59 | 332 | 6.0 | 10.0 | 0.00 | 0.00 | 0.00 | 91 | 1017.9 |
| 20260507100831 | 59 | 355 | 7.0 | 10.0 | 0.00 | 0.00 | 0.00 | 90 | 1018.1 |
| 20260507100328 | 59 | 23 | 7.0 | 9.0 | 0.00 | 0.00 | 0.00 | 90 | 1017.5 |
| 20260507095826 | 59 | 358 | 5.0 | 7.0 | 0.00 | 0.00 | 0.00 | 90 | 1017.1 |
| 20260507095322 | 59 | 40 | 2.0 | 3.0 | 0.00 | 0.00 | 0.00 | 90 | 1017.1 |
| 20260507094820 | 59 | 49 | 3.0 | 5.0 | 0.00 | 0.00 | 0.00 | 91 | 1017.7 |
| 20260507094316 | 59 | 18 | 6.0 | 9.0 | 0.00 | 0.00 | 0.00 | 91 | 1017.9 |
| 20260507093813 | 59 | 106 | 2.0 | 3.0 | 0.00 | 0.00 | 0.00 | 91 | 1017.2 |
| 20260507093312 | 59 | 123 | 1.0 | 2.0 | 0.00 | 0.00 | 0.00 | 91 | 1017.2 |
| 20260507092809 | 59 | 350 | 7.0 | 10.0 | 0.00 | 0.00 | 0.00 | 91 | 1016.5 |
| 20260507092307 | 59 | 56 | 2.0 | 3.0 | 0.00 | 0.00 | 0.00 | 91 | 1017.1 |
| 20260507091802 | 59 | 43 | 3.0 | 3.0 | 0.00 | 0.00 | 0.00 | 92 | 1017.1 |
| 20260507091259 | 59 | 6 | 4.0 | 5.0 | 0.00 | 0.00 | 0.00 | 92 | 1016.9 |
| 20260507090759 | 59 | 137 | 3.0 | 5.0 | 0.00 | 0.00 | 0.00 | 92 | 1017.1 |
| 20260507090256 | 59 | 139 | 1.0 | 2.0 | 0.00 | 0.00 | 0.00 | 92 | 1016.7 |
| 20260507085753 | 59 | 69 | 2.0 | 3.0 | 0.00 | 0.00 | 0.00 | 92 | 1016.6 |
| 20260507085250 | 59 | 134 | 2.0 | 3.0 | 0.00 | 0.00 | 0.00 | 92 | 1016.5 |
| 20260507084747 | 59 | 80 | 2.0 | 3.0 | 0.00 | 0.00 | 0.00 | 92 | 1017.2 |
| 20260507084243 | 59 | 244 | 4.0 | 5.0 | 0.00 | 0.00 | 0.00 | 92 | 1016.4 |
| 20260507083741 | 59 | 82 | 3.0 | 3.0 | 0.00 | 0.00 | 0.00 | 92 | 1016.6 |
| 20260507083237 | 59 | 112 | 0.0 | 0.0 | 0.00 | 0.00 | 0.00 | 92 | 1016.7 |
| 20260507082733 | 59 | 134 | 0.0 | 0.0 | 0.00 | 0.00 | 0.00 | 91 | 1016.2 |
| 20260507082229 | 59 | 51 | 3.0 | 5.0 | 0.00 | 0.00 | 0.00 | 91 | 1015.5 |
| 20260507081726 | 59 | 124 | 4.0 | 5.0 | 0.00 | 0.00 | 0.00 | 91 | 1016.0 |
| 20260507081222 | 59 | 130 | 0.0 | 2.0 | 0.00 | 0.00 | 0.00 | 91 | 1016.5 |
| 20260507080719 | 59 | 81 | 4.0 | 7.0 | 0.00 | 0.00 | 0.00 | 91 | 1016.0 |
| 20260507080215 | 59 | 103 | 1.0 | 2.0 | 0.00 | 0.00 | 0.00 | 91 | 1015.8 |
| 20260507075711 | 59 | 71 | 4.0 | 7.0 | 0.00 | 0.00 | 0.00 | 91 | 1016.0 |
| 20260507075207 | 59 | 71 | 6.0 | 10.0 | 0.00 | 0.00 | 0.00 | 90 | 1016.1 |
| 20260507074703 | 59 | 138 | 2.0 | 3.0 | 0.00 | 0.00 | 0.00 | 90 | 1016.0 |
| 20260507074202 | 59 | 96 | 2.0 | 3.0 | 0.00 | 0.00 | 0.00 | 90 | 1016.2 |
| 20260507073658 | 59 | 140 | 2.0 | 2.0 | 0.00 | 0.00 | 0.00 | 90 | 1016.1 |
| 20260507073154 | 59 | 109 | 1.0 | 2.0 | 0.00 | 0.00 | 0.00 | 90 | 1016.1 |
| 20260507072652 | 59 | 88 | 2.0 | 2.0 | 0.00 | 0.00 | 0.00 | 90 | 1016.1 |
| 20260507072149 | 59 | 86 | 6.0 | 7.0 | 0.00 | 0.00 | 0.00 | 90 | 1015.7 |
| 20260507071647 | 59 | 88 | 5.0 | 9.0 | 0.00 | 0.00 | 0.00 | 90 | 1015.6 |
| 20260507071143 | 59 | 68 | 7.0 | 9.0 | 0.00 | 0.00 | 0.00 | 89 | 1015.6 |
| 20260507070640 | 59 | 40 | 4.0 | 5.0 | 0.00 | 0.00 | 0.00 | 89 | 1016.1 |
| 20260507070137 | 59 | 61 | 4.0 | 5.0 | 0.00 | 0.00 | 0.00 | 89 | 1016.1 |
| 20260507065633 | 59 | 65 | 2.0 | 2.0 | 0.00 | 0.00 | 0.00 | 89 | 1016.2 |
| 20260507065130 | 59 | 80 | 2.0 | 3.0 | 0.00 | 0.00 | 0.00 | 89 | 1016.1 |
| 20260507064628 | 59 | 78 | 3.0 | 5.0 | 0.00 | 0.00 | 0.00 | 89 | 1016.3 |
| 20260507064127 | 59 | 84 | 2.0 | 3.0 | 0.00 | 0.00 | 0.00 | 89 | 1016.3 |
| 20260507063624 | 59 | 100 | 4.0 | 5.0 | 0.00 | 0.00 | 0.00 | 88 | 1016.3 |
| 20260507063121 | 59 | 93 | 4.0 | 5.0 | 0.00 | 0.00 | 0.00 | 88 | 1016.2 |
| 20260507062618 | 59 | 71 | 3.0 | 3.0 | 0.00 | 0.00 | 0.00 | 88 | 1016.4 |
| 20260507062115 | 59 | 78 | 4.0 | 5.0 | 0.00 | 0.00 | 0.00 | 88 | 1016.3 |
| 20260507061613 | 59 | 93 | 2.0 | 3.0 | 0.00 | 0.00 | 0.00 | 88 | 1016.0 |
| 20260507061110 | 60 | 130 | 3.0 | 3.0 | 0.00 | 0.00 | 0.00 | 88 | 1016.1 |
| 20260507060608 | 60 | 107 | 1.0 | 2.0 | 0.00 | 0.00 | 0.00 | 88 | 1016.0 |
| 20260507060104 | 60 | 54 | 7.0 | 9.0 | 0.00 | 0.00 | 0.00 | 88 | 1015.7 |
| 20260507055559 | 60 | 91 | 3.0 | 3.0 | 0.00 | 0.00 | 0.00 | 87 | 1015.8 |
| 20260507055056 | 60 | 62 | 5.0 | 7.0 | 0.00 | 0.00 | 0.00 | 87 | 1016.0 |
| 20260507054552 | 60 | 123 | 3.0 | 3.0 | 0.00 | 0.00 | 0.00 | 86 | 1016.1 |
| 20260507054049 | 60 | 44 | 4.0 | 9.0 | 0.00 | 0.00 | 0.00 | 86 | 1016.2 |
| 20260507053547 | 60 | 127 | 4.0 | 7.0 | 0.00 | 0.00 | 0.00 | 86 | 1016.3 |
| 20260507053046 | 60 | 109 | 0.0 | 0.0 | 0.00 | 0.00 | 0.00 | 86 | 1016.0 |
| 20260507052543 | 60 | 105 | 3.0 | 5.0 | 0.00 | 0.00 | 0.00 | 86 | 1015.8 |
| 20260507052039 | 61 | 70 | 6.0 | 9.0 | 0.00 | 0.00 | 0.00 | 85 | 1016.0 |
| 20260507051537 | 61 | 111 | 3.0 | 3.0 | 0.00 | 0.00 | 0.00 | 85 | 1016.3 |
| 20260507051034 | 61 | 43 | 4.0 | 7.0 | 0.00 | 0.00 | 0.00 | 85 | 1016.4 |
| 20260507050530 | 61 | 52 | 3.0 | 5.0 | 0.00 | 0.00 | 0.00 | 85 | 1016.6 |
| 20260507050027 | 61 | 129 | 2.0 | 5.0 | 0.00 | 0.01 | 0.01 | 85 | 1016.5 |
| 20260507045524 | 61 | 59 | 7.0 | 9.0 | 0.00 | 0.01 | 0.01 | 85 | 1016.1 |
| 20260507045021 | 61 | 25 | 4.0 | 5.0 | 0.00 | 0.01 | 0.01 | 85 | 1016.1 |
| 20260507044518 | 61 | 118 | 5.0 | 9.0 | 0.00 | 0.01 | 0.01 | 85 | 1016.2 |
| 20260507044014 | 61 | 124 | 2.0 | 3.0 | 0.00 | 0.01 | 0.01 | 86 | 1016.3 |
| 20260507043510 | 62 | 135 | 2.0 | 2.0 | 0.00 | 0.01 | 0.01 | 86 | 1016.6 |
| 20260507043008 | 62 | 130 | 2.0 | 2.0 | 0.00 | 0.01 | 0.01 | 86 | 1016.8 |
| 20260507042503 | 62 | 128 | 2.0 | 3.0 | 0.00 | 0.01 | 0.01 | 85 | 1016.6 |
| 20260507041959 | 62 | 73 | 4.0 | 5.0 | 0.00 | 0.01 | 0.01 | 86 | 1016.5 |
| 20260507041456 | 62 | 146 | 0.0 | 0.0 | 0.00 | 0.01 | 0.01 | 86 | 1016.6 |
| 20260507040953 | 62 | 83 | 5.0 | 5.0 | 0.00 | 0.01 | 0.01 | 86 | 1016.5 |
| 20260507040449 | 62 | 167 | 3.0 | 5.0 | 0.00 | 0.01 | 0.01 | 86 | 1016.1 |
| 20260507035945 | 62 | 330 | 4.0 | 5.0 | 0.00 | 0.01 | 0.01 | 86 | 1015.9 |
| 20260507035442 | 62 | 145 | 2.0 | 2.0 | 0.00 | 0.01 | 0.01 | 85 | 1016.2 |
| 20260507034938 | 62 | 115 | 3.0 | 3.0 | 0.00 | 0.01 | 0.01 | 86 | 1015.9 |
| 20260507034435 | 62 | 111 | 3.0 | 5.0 | 0.00 | 0.01 | 0.01 | 85 | 1016.3 |
| 20260507033934 | 62 | 117 | 1.0 | 2.0 | 0.00 | 0.01 | 0.01 | 86 | 1016.3 |
| 20260507033431 | 62 | 136 | 3.0 | 5.0 | 0.00 | 0.01 | 0.01 | 85 | 1015.9 |
| 20260507032928 | 62 | 125 | 2.0 | 2.0 | 0.00 | 0.01 | 0.01 | 85 | 1015.8 |
| 20260507032425 | 62 | 114 | 3.0 | 5.0 | 0.00 | 0.01 | 0.01 | 84 | 1015.6 |
| 20260507031921 | 62 | 124 | 3.0 | 3.0 | 0.00 | 0.01 | 0.01 | 84 | 1015.8 |
| 20260507031417 | 62 | 15 | 5.0 | 7.0 | 0.00 | 0.01 | 0.01 | 84 | 1016.2 |
| 20260507030914 | 62 | 342 | 4.0 | 5.0 | 0.00 | 0.01 | 0.01 | 85 | 1016.4 |
| 20260507030412 | 62 | 8 | 4.0 | 5.0 | 0.00 | 0.01 | 0.01 | 85 | 1016.3 |
| 20260507025908 | 62 | 178 | 3.0 | 3.0 | 0.00 | 0.01 | 0.01 | 86 | 1015.7 |
| 20260507025406 | 62 | 62 | 5.0 | 7.0 | 0.00 | 0.01 | 0.01 | 86 | 1015.3 |
| 20260507024904 | 62 | 138 | 3.0 | 3.0 | 0.00 | 0.01 | 0.01 | 86 | 1015.5 |
| 20260507024400 | 62 | 137 | 2.0 | 3.0 | 0.00 | 0.01 | 0.01 | 86 | 1015.5 |
| 20260507023856 | 62 | 339 | 5.0 | 5.0 | 0.00 | 0.01 | 0.01 | 86 | 1015.6 |
| 20260507023353 | 62 | 125 | 2.0 | 3.0 | 0.00 | 0.01 | 0.01 | 86 | 1015.5 |
| 20260507022851 | 62 | 61 | 0.0 | 0.0 | 0.00 | 0.01 | 0.01 | 85 | 1015.6 |
| 20260507022347 | 62 | 96 | 4.0 | 5.0 | 0.00 | 0.01 | 0.01 | 85 | 1015.5 |
| 20260507021843 | 62 | 4 | 5.0 | 7.0 | 0.00 | 0.01 | 0.01 | 85 | 1015.5 |
| 20260507021338 | 62 | 79 | 4.0 | 5.0 | 0.00 | 0.01 | 0.01 | 85 | 1015.4 |
| 20260507020837 | 61 | 68 | 3.0 | 3.0 | 0.00 | 0.01 | 0.01 | 85 | 1015.0 |
| 20260507020333 | 61 | 335 | 7.0 | 10.0 | 0.00 | 0.01 | 0.01 | 85 | 1015.2 |
| 20260507015830 | 61 | 281 | 5.0 | 5.0 | 0.00 | 0.01 | 0.01 | 85 | 1014.8 |
| 20260507015328 | 61 | 41 | 6.0 | 7.0 | 0.00 | 0.01 | 0.01 | 85 | 1014.8 |
| 20260507014825 | 61 | 104 | 4.0 | 5.0 | 0.00 | 0.01 | 0.01 | 85 | 1014.8 |
| 20260507014321 | 61 | 14 | 7.0 | 7.0 | 0.00 | 0.01 | 0.01 | 85 | 1014.7 |
| 20260507013818 | 61 | 359 | 6.0 | 7.0 | 0.00 | 0.01 | 0.01 | 85 | 1014.4 |
| 20260507013315 | 61 | 27 | 4.0 | 5.0 | 0.00 | 0.01 | 0.01 | 85 | 1014.5 |